• In Österreich
  • Länderverzeichnis
  • Für 7 Tage
  • Wassertemperatur
  • Satellitenkarten
  • Wetterkarte
  • News
  • Widgets
  • user-avatar
    Anmelden

    Stündliche Wetter New York

    Heute, 21 April, Samstag

    Zeit Temperatur Niederschläge Wind Luftdruck Luftfeuchtigkeit
    00:00 +1°C° 0 mm 4 m/S 771 mmHg 67%
    01:00 +1°C° 0 mm 4 m/S 771 mmHg 69%
    02:00 0°C° 0 mm 4 m/S 771 mmHg 71%
    03:00 0°C° 0 mm 4 m/S 771 mmHg 72%
    04:00 0°C° 0 mm 4 m/S 771 mmHg 74%
    05:00 +1°C° 0 mm 4 m/S 771 mmHg 70%
    06:00 +1°C° 0 mm 4 m/S 771 mmHg 67%
    07:00 +3°C° 0 mm 4 m/S 771 mmHg 63%
    08:00 +5°C° 0 mm 3 m/S 771 mmHg 56%
    09:00 +8°C° 0 mm 3 m/S 771 mmHg 48%
    10:00 +10°C° 0 mm 3 m/S 771 mmHg 41%
    11:00 +11°C° 0 mm 3 m/S 771 mmHg 38%
    12:00 +12°C° 0 mm 3 m/S 770 mmHg 34%
    13:00 +14°C° 0 mm 3 m/S 770 mmHg 31%
    14:00 +14°C° 0 mm 3 m/S 770 mmHg 31%
    15:00 +14°C° 0 mm 3 m/S 769 mmHg 32%
    16:00 +15°C° 0 mm 4 m/S 769 mmHg 32%
    17:00 +13°C° 0 mm 4 m/S 769 mmHg 38%
    18:00 +12°C° 0 mm 4 m/S 770 mmHg 44%
    19:00 +11°C° 0 mm 4 m/S 770 mmHg 50%
    20:00 +10°C° 0 mm 4 m/S 771 mmHg 52%
    21:00 +8°C° 0 mm 4 m/S 771 mmHg 54%
    22:00 +7°C° 0 mm 4 m/S 771 mmHg 57%
    23:00 +6°C° 0 mm 4 m/S 771 mmHg 58%

    Morgen, 22 April, Sonntag

    Zeit Temperatur Niederschläge Wind Luftdruck Luftfeuchtigkeit
    00:00 +5°C° 0 mm 3 m/S 772 mmHg 60%
    01:00 +5°C° 0 mm 3 m/S 772 mmHg 62%
    02:00 +5°C° 0 mm 2 m/S 772 mmHg 64%
    03:00 +5°C° 0 mm 2 m/S 772 mmHg 65%
    04:00 +4°C° 0 mm 2 m/S 772 mmHg 67%
    05:00 +5°C° 0 mm 2 m/S 772 mmHg 65%
    06:00 +6°C° 0 mm 2 m/S 772 mmHg 62%
    07:00 +6°C° 0 mm 2 m/S 772 mmHg 60%
    08:00 +8°C° 0 mm 2 m/S 772 mmHg 53%
    09:00 +12°C° 0 mm 2 m/S 772 mmHg 46%
    10:00 +14°C° 0 mm 2 m/S 772 mmHg 39%
    11:00 +15°C° 0 mm 2 m/S 772 mmHg 36%
    12:00 +16°C° 0 mm 2 m/S 772 mmHg 32%
    13:00 +17°C° 0 mm 2 m/S 771 mmHg 28%
    14:00 +17°C° 0 mm 3 m/S 771 mmHg 28%
    15:00 +18°C° 0 mm 3 m/S 770 mmHg 28%
    16:00 +18°C° 0 mm 4 m/S 770 mmHg 28%
    17:00 +17°C° 0 mm 3 m/S 770 mmHg 33%
    18:00 +14°C° 0 mm 3 m/S 771 mmHg 38%
    19:00 +13°C° 0 mm 3 m/S 771 mmHg 42%
    20:00 +12°C° 0 mm 3 m/S 772 mmHg 46%
    21:00 +12°C° 0 mm 2 m/S 772 mmHg 49%
    22:00 +10°C° 0 mm 2 m/S 772 mmHg 52%
    23:00 +9°C° 0 mm 2 m/S 773 mmHg 54%

    übermorgen, 23 April, Montag

    Zeit Temperatur Niederschläge Wind Luftdruck Luftfeuchtigkeit
    00:00 +9°C° 0 mm 2 m/S 773 mmHg 55%
    01:00 +9°C° 0 mm 1 m/S 773 mmHg 57%
    02:00 +7°C° 0 mm 2 m/S 773 mmHg 59%
    03:00 +7°C° 0 mm 2 m/S 773 mmHg 60%
    04:00 +6°C° 0 mm 2 m/S 773 mmHg 62%
    05:00 +7°C° 0 mm 2 m/S 774 mmHg 60%
    06:00 +7°C° 0 mm 2 m/S 774 mmHg 58%
    07:00 +8°C° 0 mm 2 m/S 774 mmHg 56%
    08:00 +10°C° 0 mm 2 m/S 774 mmHg 49%
    09:00 +14°C° 0 mm 2 m/S 774 mmHg 41%
    10:00 +16°C° 0 mm 2 m/S 774 mmHg 34%
    11:00 +17°C° 0 mm 2 m/S 774 mmHg 31%
    12:00 +18°C° 0 mm 2 m/S 774 mmHg 28%
    13:00 +19°C° 0 mm 3 m/S 773 mmHg 25%
    14:00 +19°C° 0 mm 3 m/S 773 mmHg 26%
    15:00 +19°C° 0 mm 3 m/S 772 mmHg 27%
    16:00 +19°C° 0 mm 3 m/S 772 mmHg 28%
    17:00 +17°C° 0 mm 3 m/S 772 mmHg 33%
    18:00 +15°C° 0 mm 4 m/S 772 mmHg 39%
    19:00 +13°C° 0 mm 4 m/S 772 mmHg 45%
    20:00 +12°C° 0 mm 3 m/S 772 mmHg 48%
    21:00 +11°C° 0 mm 3 m/S 773 mmHg 52%
    22:00 +11°C° 0 mm 3 m/S 773 mmHg 56%
    23:00 +10°C° 0 mm 3 m/S 773 mmHg 57%

    24 April, Dienstag

    Zeit Temperatur Niederschläge Wind Luftdruck Luftfeuchtigkeit
    00:00 +10°C° 0 mm 2 m/S 773 mmHg 59%
    01:00 +9°C° 0 mm 2 m/S 773 mmHg 61%
    02:00 +9°C° 0 mm 2 m/S 773 mmHg 62%
    03:00 +9°C° 0 mm 2 m/S 772 mmHg 64%
    04:00 +9°C° 0 mm 1 m/S 772 mmHg 65%
    05:00 +10°C° 0 mm 1 m/S 772 mmHg 62%
    06:00 +11°C° 0 mm 1 m/S 772 mmHg 59%
    07:00 +11°C° 0 mm 1 m/S 772 mmHg 57%
    08:00 +13°C° 0 mm 2 m/S 772 mmHg 52%
    09:00 +15°C° 0 mm 2 m/S 772 mmHg 47%
    10:00 +17°C° 0 mm 3 m/S 772 mmHg 42%
    11:00 +18°C° 0 mm 4 m/S 771 mmHg 41%
    12:00 +18°C° 0 mm 4 m/S 771 mmHg 39%
    13:00 +19°C° 0 mm 5 m/S 770 mmHg 38%
    14:00 +19°C° 0 mm 5 m/S 770 mmHg 41%
    15:00 +17°C° 0 mm 5 m/S 769 mmHg 43%
    16:00 +17°C° 0 mm 5 m/S 769 mmHg 46%
    17:00 +16°C° 0 mm 5 m/S 769 mmHg 51%
    18:00 +15°C° 0 mm 5 m/S 768 mmHg 57%
    19:00 +14°C° 0 mm 4 m/S 768 mmHg 62%
    20:00 +13°C° 0 mm 4 m/S 768 mmHg 66%
    21:00 +13°C° 0 mm 4 m/S 768 mmHg 70%
    22:00 +12°C° 0 mm 4 m/S 768 mmHg 74%
    23:00 +12°C° 0 mm 3 m/S 767 mmHg 77%

    25 April, Mittwoch

    Zeit Temperatur Niederschläge Wind Luftdruck Luftfeuchtigkeit
    00:00 +12°C° 0 mm 3 m/S 766 mmHg 79%
    01:00 +12°C° 0 mm 3 m/S 766 mmHg 82%
    02:00 +12°C° 0,3 mm 3 m/S 765 mmHg 85%
    03:00 +12°C° 0,3 mm 3 m/S 765 mmHg 87%
    04:00 +12°C° 0,3 mm 3 m/S 764 mmHg 90%
    05:00 +12°C° 0,3 mm 4 m/S 764 mmHg 90%
    06:00 +12°C° 0,3 mm 4 m/S 764 mmHg 89%
    07:00 +13°C° 0,3 mm 4 m/S 763 mmHg 89%
    08:00 +13°C° 0,6 mm 4 m/S 763 mmHg 87%
    09:00 +13°C° 0,6 mm 4 m/S 762 mmHg 85%
    10:00 +14°C° 0,6 mm 4 m/S 762 mmHg 83%
    11:00 +13°C° 1 mm 5 m/S 761 mmHg 84%
    12:00 +13°C° 1 mm 5 m/S 760 mmHg 86%
    13:00 +13°C° 1 mm 5 m/S 759 mmHg 87%
    14:00 +13°C° 1,1 mm 6 m/S 758 mmHg 88%
    15:00 +13°C° 1,1 mm 6 m/S 757 mmHg 90%
    16:00 +13°C° 1,1 mm 6 m/S 757 mmHg 91%
    17:00 +13°C° 0,6 mm 6 m/S 756 mmHg 91%
    18:00 +13°C° 0,6 mm 5 m/S 756 mmHg 92%
    19:00 +13°C° 0,6 mm 5 m/S 755 mmHg 92%
    20:00 +13°C° 0,1 mm 5 m/S 755 mmHg 93%
    21:00 +12°C° 0,1 mm 4 m/S 755 mmHg 93%
    22:00 +12°C° 0,1 mm 4 m/S 755 mmHg 93%
    23:00 +12°C° 0,2 mm 3 m/S 754 mmHg 94%

    26 April, Donnerstag

    Zeit Temperatur Niederschläge Wind Luftdruck Luftfeuchtigkeit
    00:00 +12°C° 0,2 mm 3 m/S 754 mmHg 94%
    01:00 +13°C° 0,2 mm 2 m/S 754 mmHg 94%
    02:00 +13°C° 0,1 mm 2 m/S 753 mmHg 95%
    03:00 +13°C° 0,1 mm 2 m/S 753 mmHg 95%
    04:00 +13°C° 0,1 mm 1 m/S 753 mmHg 96%
    05:00 +13°C° 0 mm 1 m/S 753 mmHg 95%
    06:00 +14°C° 0 mm 2 m/S 753 mmHg 95%
    07:00 +14°C° 0 mm 2 m/S 753 mmHg 95%
    08:00 +15°C° 0 mm 2 m/S 753 mmHg 93%
    09:00 +14°C° 0 mm 3 m/S 753 mmHg 91%
    10:00 +16°C° 0 mm 3 m/S 752 mmHg 89%
    11:00 +17°C° 0,1 mm 3 m/S 752 mmHg 87%
    12:00 +17°C° 0,1 mm 3 m/S 752 mmHg 85%
    13:00 +18°C° 0,1 mm 3 m/S 751 mmHg 83%
    14:00 +18°C° 0,6 mm 3 m/S 751 mmHg 85%
    15:00 +18°C° 0,6 mm 4 m/S 750 mmHg 87%
    16:00 +17°C° 0,6 mm 4 m/S 750 mmHg 89%
    17:00 +17°C° 0,5 mm 4 m/S 749 mmHg 91%
    18:00 +15°C° 0,5 mm 4 m/S 749 mmHg 92%
    19:00 +15°C° 0,5 mm 4 m/S 749 mmHg 93%
    20:00 +16°C° 0,5 mm 3 m/S 749 mmHg 94%
    21:00 +16°C° 0,5 mm 3 m/S 748 mmHg 94%
    22:00 +16°C° 0,5 mm 3 m/S 748 mmHg 94%
    23:00 +14°C° 0,2 mm 4 m/S 748 mmHg 93%
    Mehr zeigen